Ketchikan, AK

7:00 AM AKST on December 18, 2018 (GMT -0900)
Ketchikan International

Weather History for PAKT - February, 2018

Change the Weather History Date:

Monday, February 12, 2018

  Actual Average Record
Temperature  
Mean Temperature 34 °F -  
Max Temperature 42 °F 40 °F 51 °F (1963)
Min Temperature 26 °F 30 °F 6 °F (1975)
Degree Days  
Heating Degree Days 32    
Moisture  
Dew Point 31 °F    
Average Humidity 90    
Maximum Humidity 97    
Minimum Humidity 80    
Precipitation  
Precipitation 0.58 in - - ()
Sea Level Pressure  
Sea Level Pressure 30.21 in    
Wind  
Wind Speed 8 mph (SSE)    
Max Wind Speed 21 mph    
Max Gust Speed 28 mph    
Visibility 6 miles    
Events Rain , Snow    
Averages and records for this station are not official NWS values.
T = Trace of Precipitation, MM = Missing Value Source: NWS Daily Summary

Daily Weather History Graph

Daily Weather History Graph

Search for Another Location

Airport or City:

Astronomy

Feb. 12, 2018 Rise Set
Actual Time 7:16 AM AKST 4:46 PM AKST
Civil Twilight 6:37 AM AKST 5:25 PM AKST
Nautical Twilight 5:54 AM AKST 6:08 PM AKST
Astronomical Twilight 5:12 AM AKST 6:50 PM AKST
Moon 5:38 AM AKST (2/12) 1:43 PM AKST (2/12)
Length of Visible Light 10h 47m
Length of Day
9h 30m
Waning Crescent, 8% of the Moon is Illuminated
Feb 12
Waning Crescent
Feb 15
New
Feb 22
First Quarter
Mar 1
Full
Mar 9
Last Quarter

Hourly Weather History & Observations

Time (AKST) Temp. Windchill Dew Point Humidity Pressure Visibility Wind Dir Wind Speed Gust Speed Precip Events Conditions
12:53 AM 28.9 °F 21.9 °F 26.1 °F 89% 30.40 in 10.0 mi WNW 6.9 mph - N/A   Clear
1:53 AM 28.0 °F 21.7 °F 25.0 °F 88% 30.38 in 10.0 mi WNW 5.8 mph - N/A   Clear
2:53 AM 27.0 °F - 21.9 °F 81% 30.38 in 10.0 mi Calm Calm - N/A   Mostly Cloudy
3:53 AM 26.1 °F - 21.0 °F 81% 30.37 in 10.0 mi Calm Calm - N/A   Overcast
4:53 AM 28.0 °F - 24.1 °F 85% 30.37 in 10.0 mi Calm Calm - N/A   Overcast
5:53 AM 28.9 °F - 24.1 °F 82% 30.38 in 10.0 mi Calm Calm - N/A   Overcast
6:53 AM 30.2 °F 25.4 °F 24.8 °F 80% 30.38 in 10.0 mi SSE 4.6 mph - N/A   Overcast
7:53 AM 30.2 °F 23.4 °F 26.6 °F 86% 30.37 in 10.0 mi SSE 6.9 mph - N/A   Overcast
8:53 AM 32.0 °F 27.5 °F 28.4 °F 87% 30.38 in 10.0 mi SSE 4.6 mph - N/A   Overcast
9:53 AM 33.8 °F 27.0 °F 28.4 °F 81% 30.38 in 10.0 mi SSE 8.1 mph - N/A   Overcast
10:53 AM 33.1 °F 25.5 °F 28.0 °F 82% 30.37 in 7.0 mi SSE 9.2 mph - 0.00 in Snow Light Snow
12:53 PM 33.1 °F 25.5 °F 30.9 °F 92% 30.33 in 5.0 mi SE 9.2 mph - 0.00 in Snow Light Snow
1:53 PM 33.1 °F 24.4 °F 30.9 °F 92% 30.31 in 3.0 mi SSE 11.5 mph - 0.00 in   Overcast
2:53 PM 34.0 °F 26.0 °F 32.0 °F 92% 30.28 in 5.0 mi SSE 10.4 mph - 0.02 in   Overcast
3:53 PM 34.0 °F 26.0 °F 32.0 °F 92% 30.26 in 3.0 mi SSE 10.4 mph - 0.01 in   Overcast
4:53 PM 34.0 °F 27.2 °F 33.1 °F 96% 30.22 in 2.0 mi SSE 8.1 mph - 0.07 in Snow Light Snow
5:43 PM 34.0 °F 27.2 °F 33.1 °F 96% 30.20 in 3.0 mi SSE 8.1 mph - 0.05 in Snow Light Snow
5:53 PM 34.0 °F 28.0 °F 33.1 °F 96% 30.20 in 3.0 mi SSE 6.9 mph - 0.05 in Snow Light Snow
6:53 PM 35.1 °F 27.9 °F 33.1 °F 92% 30.17 in 3.0 mi South 9.2 mph - 0.09 in Snow Light Snow
7:53 PM 35.1 °F 27.4 °F 34.0 °F 96% 30.13 in 4.0 mi SSE 10.4 mph - 0.13 in Rain Rain
8:53 PM 37.4 °F 27.8 °F 35.6 °F 93% 30.08 in 3.0 mi SE 17.3 mph 23.0 mph N/A Rain Light Rain
9:16 PM 37.0 °F 28.9 °F 36.0 °F 96% 30.06 in 2.5 mi SSE 12.7 mph 23.0 mph 0.02 in Rain Light Rain
9:53 PM 37.9 °F 27.6 °F 36.0 °F 93% 30.05 in 2.5 mi SE 20.7 mph 27.6 mph 0.05 in Rain Light Rain
10:06 PM 37.9 °F 28.5 °F 36.0 °F 93% 30.01 in 1.8 mi SE 17.3 mph 23.0 mph 0.02 in Rain Light Rain
10:17 PM 37.9 °F 28.5 °F 37.0 °F 97% 30.01 in 2.0 mi SE 17.3 mph 25.3 mph 0.03 in Rain Light Rain
10:45 PM 37.9 °F 27.6 °F 37.0 °F 97% 30.00 in 1.8 mi SE 20.7 mph - 0.07 in Rain Light Rain
10:53 PM 37.9 °F 28.2 °F 37.0 °F 97% 30.01 in 2.5 mi SE 18.4 mph - 0.08 in Rain Light Rain
11:03 PM 37.9 °F 28.9 °F 37.0 °F 97% 29.99 in 4.0 mi SE 16.1 mph - 0.01 in Rain Light Rain
11:28 PM 41.0 °F 33.1 °F 39.0 °F 93% 29.97 in 6.0 mi SE 15.0 mph - 0.04 in Rain Light Rain
11:53 PM 42.1 °F 34.9 °F 39.0 °F 89% 29.97 in 6.0 mi SE 13.8 mph - 0.08 in Rain Light Rain